Previsão horária em Alibaevo

Hoje, 19 Junho, Sábado

Tempo Temperatura Precipitação Vento Pressão Humidade
00:00 +11°C° 0 mm 3 m/s 740 mmHg 70%
01:00 +11°C° 0 mm 3 m/s 740 mmHg 72%
02:00 +10°C° 0 mm 2 m/s 740 mmHg 74%
03:00 +10°C° 0 mm 2 m/s 741 mmHg 75%
04:00 +9°C° 0 mm 2 m/s 741 mmHg 75%
05:00 +12°C° 0 mm 2 m/s 741 mmHg 68%
06:00 +14°C° 0 mm 1 m/s 742 mmHg 60%
07:00 +16°C° 0 mm 1 m/s 742 mmHg 52%
08:00 +18°C° 0 mm 2 m/s 742 mmHg 48%
09:00 +19°C° 0 mm 2 m/s 742 mmHg 44%
10:00 +21°C° 0 mm 3 m/s 742 mmHg 39%
11:00 +21°C° 0 mm 3 m/s 742 mmHg 38%
12:00 +22°C° 0 mm 3 m/s 742 mmHg 37%
13:00 +23°C° 0 mm 4 m/s 742 mmHg 36%
14:00 +23°C° 0 mm 4 m/s 741 mmHg 37%
15:00 +23°C° 0 mm 5 m/s 741 mmHg 39%
16:00 +25°C° 0 mm 5 m/s 741 mmHg 40%
17:00 +23°C° 0 mm 5 m/s 741 mmHg 44%
18:00 +22°C° 0 mm 4 m/s 741 mmHg 49%
19:00 +22°C° 0 mm 4 m/s 740 mmHg 54%
20:00 +20°C° 0 mm 3 m/s 740 mmHg 62%
21:00 +18°C° 0 mm 2 m/s 740 mmHg 69%
22:00 +16°C° 0 mm 1 m/s 740 mmHg 77%
23:00 +15°C° 0 mm 1 m/s 740 mmHg 80%

Amanhã, 20 Junho, Domingo

Tempo Temperatura Precipitação Vento Pressão Humidade
00:00 +15°C° 0 mm 1 m/s 740 mmHg 83%
01:00 +14°C° 0 mm 1 m/s 740 mmHg 86%
02:00 +14°C° 0 mm 1 m/s 740 mmHg 87%
03:00 +14°C° 0 mm 1 m/s 739 mmHg 89%
04:00 +13°C° 0 mm 1 m/s 739 mmHg 91%
05:00 +15°C° 0 mm 2 m/s 739 mmHg 84%
06:00 +17°C° 0 mm 3 m/s 739 mmHg 78%
07:00 +19°C° 0 mm 4 m/s 739 mmHg 71%
08:00 +21°C° 0 mm 5 m/s 739 mmHg 66%
09:00 +23°C° 0 mm 6 m/s 739 mmHg 61%
10:00 +26°C° 0 mm 7 m/s 739 mmHg 56%
11:00 +27°C° 0 mm 7 m/s 739 mmHg 53%
12:00 +28°C° 0 mm 7 m/s 738 mmHg 50%
13:00 +29°C° 0 mm 7 m/s 738 mmHg 47%
14:00 +29°C° 0 mm 8 m/s 738 mmHg 48%
15:00 +29°C° 0 mm 8 m/s 738 mmHg 49%
16:00 +29°C° 0 mm 8 m/s 738 mmHg 50%
17:00 +28°C° 0 mm 7 m/s 738 mmHg 54%
18:00 +27°C° 0 mm 7 m/s 738 mmHg 59%
19:00 +26°C° 0 mm 7 m/s 738 mmHg 64%
20:00 +23°C° 0 mm 5 m/s 738 mmHg 68%
21:00 +21°C° 0 mm 4 m/s 739 mmHg 72%
22:00 +19°C° 0 mm 3 m/s 739 mmHg 76%
23:00 +18°C° 0 mm 3 m/s 739 mmHg 79%

Depois de amanhã, 21 Junho, Segunda-feira

Tempo Temperatura Precipitação Vento Pressão Humidade
00:00 +16°C° 0 mm 2 m/s 739 mmHg 82%
01:00 +15°C° 0 mm 2 m/s 739 mmHg 85%
02:00 +14°C° 0 mm 2 m/s 740 mmHg 81%
03:00 +13°C° 0 mm 2 m/s 740 mmHg 77%
04:00 +12°C° 0 mm 2 m/s 740 mmHg 74%
05:00 +14°C° 0 mm 2 m/s 740 mmHg 64%
06:00 +16°C° 0 mm 2 m/s 741 mmHg 54%
07:00 +18°C° 0 mm 2 m/s 741 mmHg 44%
08:00 +20°C° 0 mm 3 m/s 741 mmHg 39%
09:00 +22°C° 0 mm 3 m/s 741 mmHg 34%
10:00 +25°C° 0 mm 4 m/s 741 mmHg 29%
11:00 +26°C° 0 mm 4 m/s 741 mmHg 29%
12:00 +27°C° 0 mm 5 m/s 741 mmHg 29%
13:00 +28°C° 0 mm 5 m/s 741 mmHg 29%
14:00 +28°C° 0 mm 5 m/s 741 mmHg 29%
15:00 +28°C° 0 mm 5 m/s 741 mmHg 29%
16:00 +28°C° 0 mm 6 m/s 741 mmHg 30%
17:00 +27°C° 0 mm 5 m/s 741 mmHg 34%
18:00 +26°C° 0 mm 5 m/s 741 mmHg 38%
19:00 +25°C° 0 mm 4 m/s 741 mmHg 42%
20:00 +22°C° 0 mm 4 m/s 741 mmHg 50%
21:00 +19°C° 0 mm 3 m/s 741 mmHg 57%
22:00 +17°C° 0 mm 2 m/s 741 mmHg 65%
23:00 +16°C° 0 mm 2 m/s 741 mmHg 66%

22 Junho, Terça-feira

Tempo Temperatura Precipitação Vento Pressão Humidade
00:00 +16°C° 0 mm 1 m/s 741 mmHg 67%
01:00 +15°C° 0 mm 1 m/s 741 mmHg 68%
02:00 +15°C° 0 mm 1 m/s 741 mmHg 68%
03:00 +15°C° 0 mm 1 m/s 741 mmHg 69%
04:00 +14°C° 0 mm 0 m/s 741 mmHg 69%
05:00 +18°C° 0 mm 1 m/s 741 mmHg 63%
06:00 +20°C° 0 mm 1 m/s 741 mmHg 57%
07:00 +22°C° 0 mm 1 m/s 742 mmHg 50%
08:00 +24°C° 0 mm 2 m/s 741 mmHg 50%
09:00 +26°C° 0 mm 3 m/s 741 mmHg 49%
10:00 +27°C° 0 mm 4 m/s 741 mmHg 49%
11:00 +29°C° 0 mm 4 m/s 741 mmHg 46%
12:00 +30°C° 0 mm 5 m/s 741 mmHg 44%
13:00 +32°C° 0 mm 6 m/s 741 mmHg 41%
14:00 +32°C° 0 mm 5 m/s 740 mmHg 43%
15:00 +30°C° 0 mm 5 m/s 740 mmHg 45%
16:00 +29°C° 0 mm 4 m/s 740 mmHg 47%
17:00 +29°C° 0 mm 4 m/s 740 mmHg 49%
18:00 +29°C° 0 mm 4 m/s 740 mmHg 52%
19:00 +28°C° 0 mm 3 m/s 739 mmHg 54%
20:00 +26°C° 0 mm 3 m/s 739 mmHg 61%
21:00 +25°C° 0 mm 2 m/s 739 mmHg 68%
22:00 +23°C° 0 mm 1 m/s 739 mmHg 76%
23:00 +22°C° 0 mm 1 m/s 739 mmHg 79%

23 Junho, Quarta-feira

Tempo Temperatura Precipitação Vento Pressão Humidade
00:00 +21°C° 0 mm 1 m/s 739 mmHg 82%
01:00 +21°C° 0 mm 1 m/s 739 mmHg 85%
02:00 +20°C° 0 mm 1 m/s 739 mmHg 86%
03:00 +20°C° 0 mm 1 m/s 739 mmHg 87%
04:00 +20°C° 0 mm 1 m/s 739 mmHg 88%
05:00 +21°C° 0.1 mm 1 m/s 739 mmHg 83%
06:00 +23°C° 0.1 mm 1 m/s 739 mmHg 78%
07:00 +24°C° 0.1 mm 2 m/s 739 mmHg 73%
08:00 +26°C° 0.3 mm 2 m/s 739 mmHg 68%
09:00 +27°C° 0.3 mm 3 m/s 739 mmHg 62%
10:00 +29°C° 0.3 mm 3 m/s 740 mmHg 56%
11:00 +30°C° 0 mm 3 m/s 739 mmHg 50%
12:00 +31°C° 0 mm 3 m/s 739 mmHg 44%
13:00 +33°C° 0 mm 4 m/s 739 mmHg 38%
14:00 +33°C° 0 mm 4 m/s 739 mmHg 38%
15:00 +33°C° 0 mm 4 m/s 739 mmHg 37%
16:00 +33°C° 0 mm 4 m/s 739 mmHg 37%
17:00 +32°C° 0 mm 4 m/s 739 mmHg 41%
18:00 +30°C° 0 mm 3 m/s 739 mmHg 45%
19:00 +29°C° 0 mm 2 m/s 739 mmHg 50%
20:00 +27°C° 0.1 mm 2 m/s 739 mmHg 60%
21:00 +24°C° 0.1 mm 1 m/s 739 mmHg 69%
22:00 +22°C° 0.1 mm 1 m/s 739 mmHg 79%
23:00 +21°C° 0.2 mm 1 m/s 739 mmHg 81%

24 Junho, Quinta-feira

Tempo Temperatura Precipitação Vento Pressão Humidade
00:00 +19°C° 0.2 mm 0 m/s 738 mmHg 84%
01:00 +18°C° 0.2 mm 0 m/s 738 mmHg 86%
02:00 +18°C° 0 mm 0 m/s 738 mmHg 86%
03:00 +17°C° 0 mm 0 m/s 738 mmHg 87%
04:00 +17°C° 0 mm 0 m/s 738 mmHg 87%
05:00 +19°C° 0 mm 0 m/s 738 mmHg 84%
06:00 +22°C° 0 mm 1 m/s 738 mmHg 80%
07:00 +24°C° 0 mm 1 m/s 738 mmHg 76%
08:00 +26°C° 0 mm 3 m/s 738 mmHg 66%
09:00 +28°C° 0 mm 4 m/s 737 mmHg 57%
10:00 +30°C° 0 mm 5 m/s 737 mmHg 47%
11:00 +32°C° 0 mm 6 m/s 737 mmHg 45%
12:00 +32°C° 0 mm 6 m/s 737 mmHg 43%
13:00 +32°C° 0 mm 7 m/s 736 mmHg 41%
14:00 +32°C° 0 mm 6 m/s 736 mmHg 41%
15:00 +32°C° 0 mm 6 m/s 736 mmHg 41%
16:00 +32°C° 0 mm 6 m/s 736 mmHg 41%
17:00 +32°C° 0 mm 6 m/s 736 mmHg 44%
18:00 +30°C° 0 mm 6 m/s 736 mmHg 47%
19:00 +30°C° 0 mm 5 m/s 735 mmHg 49%
20:00 +27°C° 0.2 mm 4 m/s 735 mmHg 61%
21:00 +24°C° 0.2 mm 3 m/s 736 mmHg 72%
22:00 +21°C° 0.2 mm 3 m/s 736 mmHg 84%
23:00 +20°C° 0 mm 3 m/s 736 mmHg 86%
Mostrar mais